ARIANE 5 R/B, 44802

Orbit data source: Space-Track

ARIANE 5 R/B, 44802 is space debris in HEO originally from a launch on Tue, 26 Nov 2019 UTC launched from the French Guiana (FRGUI). Debris objects in space refer to the collection of defunct objects orbiting the Earth. Examples of debris include non-operational satellites, rocket bodies, and fragments generated from explosions, collisions, or faulty payload assembly.

Loading next visibility...
Identifier
44802, 2019-080C
Orbit
HEO
Country
Flag of FRFR
Related business
Manufacturer
ArianeGroup
Mission
Spacecraft
Bus & Motor
ESC-A, Unknown motor
Mass
~5,000 kg wet, ~5,000 kg dry
Launch date (UTC)
2019-11-26 (6 years ago)
Launch vehicle
Unknown
Launch site
French Guiana (FRGUI)
Object type
Payload
Rocket body
Debris
Shape & HBR
Cyl + 1 Nozzle, 3.5 m
Radar Cross Section
41.627 m², Large (>1 m²)

Expand to show TLE details & history
Last TLE update: 22 hours ago

TLE from 22 hours ago
0 ARIANE 5 R/B
1 44802U 19080C   25300.62525261  .00006205  00000-0  10048-2 0  9993
2 44802   5.6672 302.6125 7010872 339.0834   2.5955  2.63851461 53134
Epoch: 2025-10-27T15:00Z
TLE epoch observation values (Epoch: 2025-10-27T15:00:21.825Z)
Latitude
0.00051°
Longitude
41.20198°
Altitude
430.631 km
Speed
9.952 km/s
True Right ascension
20h 10m 04s
True Declination
0° 00' 02"
Sunlit
Object was in daylight at epoch
Visualization orbit readout
Latitude
Unknown
Longitude
Unknown
Altitude
Unknown
Speed
Unknown
Apparent Right ascension
Unknown
Apparent Declination
Unknown
Sunlit
N/A
Visualization observer readout
Local Sidereal Time
08:04:56
Azimuth
Unknown
Elevation
Unknown
Doppler factor
Unknown
Orbital elements
Apogee altitude
31,262.928 km
Perigee altitude
236.101 km
Semi-major axis
22,127.652 km
Eccentricity
0.70109
Inclination
5.6672°
RAAN
302.6125°
Arg. of periapsis
339.0834°
True anomaly
20.35511°
Mean anomaly
2.5955°
Eccentric anomaly
8.60729°
Mean motion
0.65939 °/min
Orbital period
545.96 mins
BSTAR
0.0010048
Loading maneuver chart data...
Computing Atmospheric mass density...
Loading historical data...
Loading historical data...
Loading historical data...
Loading historical data...
Loading historical data...
Loading historical data...
Loading historical data...
Other satellites on launch #80 in the year 2019 (2019-11-26 UTC)

Documentation

Showing up to 5 results
|